IRIDIUM 156 (43576 NORAD) Tracking and Keplerian Element Data

This shows tracking and keplerian element data for the satellite.

Feedback or suggestion? Click here.




ElementValue
Catalog43576
NameIRIDIUM 156
Epoch Orbit38767
Epoch Day353.88211332
Epoch Year2025
RAAN131.7049
Inclination86.398
Eccentricity0.0002179
Argument of Perigee99.2793
Mean Anonmoly260.8649
Mean Motion14.34217301
Decay Rate2.21E-06
L11 43576U 18061H 25353.88211332 .00000221 00000+0 71779-4 0 9996
L22 43576 86.3980 131.7049 0002179 99.2793 260.8649 14.34217301387676



Live tracking and technical data element details for IRIDIUM 156 (NORAD 43576). IRIDIUM 156 can be tracked NOW for your location showing map with azimuth and elevation plus other details from your city location.







IsCatalogInMostPopularTable: catalog: 43576, numindb: 524
Update: records affected: 1



GetName: 43576 IRIDIUM 156

Hit Count: updated at: Thu, 21 May 2026 11:46:39 GMT